Location: Zihuatanejo
(17.6330°N, 101.5500°W)
Time: 19:19:12
(UTC-05:00)

Daily predictions for brighter satellites

Satellite Brightness Start Highest point End
(mag) Time Altitude Azimuth Time Altitude Azimuth Time Altitude Azimuth
Cosmos 909 Rocket 4.3 20:36:43 10° S 20:42:40 49° ESE 20:49:01 10° NE
GPS 2-05 Rocket1 3.3 20:41:41 10° WSW 20:45:24 69° NNW 20:49:03 10° NE
Cosmos 1867 4.0 20:41:24 10° N 20:46:34 43° ENE 20:51:40 10° SE
USA 32 4.0 20:42:24 10° N 20:47:38 75° E 20:52:51 10° S
FREGAT/IRIS 2.9 20:46:47 10° S 20:49:51 74° W 20:52:56 10° NNW
NOAA 12 4.2 20:46:22 10° SSE 20:51:42 87° W 20:57:00 10° NNW
USA 238 4.5 20:52:13 10° NW 20:59:00 54° WSW 21:05:48 10° S
METEOR-M 4.1 20:53:58 10° SSE 20:59:15 69° ENE 21:04:32 10° N
GPS 2-17 Rocket1 3.2 20:56:39 10° W 21:01:28 86° N 21:05:52 13° E
GPS 2-14 Rocket1 3.1 21:00:49 10° WNW 21:04:34 56° N 21:08:06 12° E
Cosmos 2251 Rocket 3.5 21:00:17 10° N 21:05:30 75° ENE 21:10:43 10° SSE
Aureole 3 Rocket 3.0 21:02:41 10° N 21:07:50 73° E 21:11:35 10° S
Cosmos 158 Rocket 4.3 21:03:08 10° NNW 21:08:00 62° WSW 21:12:47 10° S
Cosmos 389 Rocket 2.9 21:05:35 10° NNE 21:08:52 41° E 21:11:50 12° SSE
Cosmos 1455 4.1 21:07:09 10° NNW 21:10:40 33° W 21:14:11 10° SSW
Cosmos 1733 Rocket 4.2 21:10:53 14° SE 21:13:25 23° E 21:16:53 10° NE
Nadezhda 1 Rocket 4.3 21:07:33 10° N 21:13:51 72° W 21:20:12 10° S
Stardust Del rocket 3.9 21:11:25 10° WNW 21:14:05 40° NNE 21:18:03 12° E
USA 234 4.0 21:09:52 10° ENE 21:15:14 27° SE 21:20:34 10° S
Resurs 1-3 3.7 21:11:14 10° S 21:15:36 78° WSW 21:19:58 10° NNW
Cosmos 2056 Rocket 3.7 21:11:46 10° S 21:16:46 47° ESE 21:21:42 10° NNE
Cosmos 1371 Rocket 4.0 21:13:27 10° S 21:18:47 76° ESE 21:24:05 10° NNE
Cosmos 2221 Rocket 3.6 21:15:27 10° N 21:19:49 61° E 21:24:05 10° SSE
USA 186 2.4 21:21:37 28° E 21:22:06 30° ENE 21:24:46 10° NNE
CZ-3C R/B 4.2 19:10:57 10° WSW 21:22:36 75° SSE 21:30:49 14° E
Cosmos 2278 Rocket 3.8 21:27:11 16° E 21:27:11 16° E 21:29:16 10° ENE
Cosmos 1356 Rocket 3.6 21:22:04 10° S 21:26:04 49° E 21:30:08 10° NNE
Cosmos 1844 4.3 21:23:30 10° SSE 21:28:32 33° ESE 21:33:37 10° NE
NOSS 3-2 (C) 4.1 21:24:36 10° NNW 21:32:34 82° ENE 21:39:15 17° SSE
Cosmos 2181 Rocket 4.0 21:26:35 10° N 21:32:56 65° E 21:38:45 12° SSE
CZ-2D R/B 3.1 21:32:44 21° SSE 21:35:12 81° E 21:39:02 10° N
Cosmos 1933 4.1 21:31:24 10° NNW 21:35:24 54° W 21:39:24 10° S
Cosmos 1844 Rocket 2.7 21:30:54 10° S 21:36:27 59° ESE 21:42:00 10° NNE
NOSS 3-2 (A) 4.3 21:30:08 10° NNW 21:38:03 74° WSW 21:45:27 13° SSE
ATLAS 2A CENTAUR R/B 2.7 21:34:38 10° W 21:39:13 26° NNW 21:40:50 14° NNE
OAO 3 Rocket 3.2 21:34:39 10° SW 21:39:33 63° SE 21:42:33 23° ENE
H-2A R/B 4.1 21:41:12 14° ENE 21:41:12 14° ENE 21:42:34 10° NE
Meteor 2-3 Rocket 4.2 21:34:47 10° SSW 21:40:23 64° W 21:45:57 10° N
Cosmos 1943 3.1 21:34:48 10° NNW 21:40:26 86° ENE 21:44:12 22° SSE
Cosmos 2074 Rocket 3.9 21:34:48 10° S 21:41:02 70° E 21:47:16 10° N
CENTAUR R/B 4.3 21:35:05 10° N 21:41:27 25° ENE 21:44:21 20° E
CZ-4C R/B 4.0 21:37:02 10° NW 21:44:13 43° WSW 21:51:36 10° S
Cosmos 1340 Rocket 3.9 21:43:06 10° SSW 21:46:51 43° W 21:50:39 10° N
Cosmos 2327 Rocket 4.5 21:40:53 10° S 21:47:17 78° E 21:53:39 10° N
Resurs 01 Rocket 4.3 21:48:42 10° SW 21:51:38 18° W 21:54:35 10° NW
FENGYUN 3A 3.8 21:47:19 15° S 21:51:47 75° WSW 21:57:11 10° NNW
Meteor 1-26 Rocket 4.4 21:48:47 10° N 21:54:38 77° W 21:59:21 17° S
Envisat 4.1 21:57:05 27° ENE 21:57:05 27° ENE 22:00:53 10° NNE
SJ-11-01 4.4 22:02:05 54° E 22:02:19 55° ENE 22:06:57 10° N
Sich 1 Rocket 3.8 22:03:58 52° ENE 22:03:58 52° ENE 22:07:56 10° NNE
SEDSat Delta rocket 2.7 22:00:59 10° WSW 22:05:20 85° NNW 22:05:30 81° NNE
ALOS 3.4 22:03:07 15° SSW 22:06:35 40° W 22:10:58 10° NNW
Atlas Centaur 2 3.9 22:06:25 10° NNW 22:07:35 11° N 22:08:46 10° NNE
Mugunghwa Rocket 4.4 21:59:42 10° SW 22:07:58 63° SSE 22:10:53 40° E
Okean 1-7 4.2 22:05:57 10° NNW 22:10:00 41° W 22:12:13 23° SSW
ISS -1.8 22:07:26 10° WSW 22:10:29 36° NW 22:10:36 36° NW
Cosmos 2341 Rocket 4.4 22:14:23 42° ENE 22:14:23 42° ENE 22:19:37 10° NNE
Cosmos 1452 Rocket 3.3 22:19:21 72° S 22:19:54 86° E 22:25:10 10° NNE
Meteor 2-10 Rocket 3.6 22:15:58 10° N 22:21:44 87° E 22:22:24 71° SSE
ERS-1 Rocket 2.8 22:22:14 84° S 22:22:24 88° WSW 22:27:27 10° NNW
Cosmos 2154 Rocket 4.1 22:43:52 59° SW 22:44:51 69° W 22:51:02 10° N
USA 234 4.0 22:51:54 10° NNE 22:58:08 49° NW 23:04:21 10° WSW
Ariane H10+ 4.5 22:56:46 10° WSW 22:59:01 15° SW 22:59:01 15° SW
FALCON 9 R/B 3.7 22:29:38 10° WNW 23:02:12 75° NNE 23:04:15 62° E
COSMOS 2406 4.1 22:58:32 10° NNW 23:02:26 45° NNW 23:02:26 45° NNW
Cosmos 2278 Rocket 3.5 23:08:50 35° W 23:09:22 36° WNW 23:14:33 10° N
ATLAS 5 CENTAUR R/B 3.3 23:06:07 10° NNW 23:10:26 47° NNW 23:10:26 47° NNW
CENTAUR R/B 3.6 23:24:22 10° NW 23:31:33 54° W 23:31:33 54° W
